This is the latest recevied weather packets stored in our database for station/object WX7FGZ-7. If no packets are shown the sender has not sent any weather packets the latest 10 day(s).
| Time | Temp. | Humidity | Pressure | Rain* | Wind** | Luminosity | Snow |
|---|---|---|---|---|---|---|---|
| 1777860918 | 17.78° C | 48% | 1012.7 hPa | 0 mm | - | - | - |
| 1777860618 | 17.78° C | 47% | 1012.6 hPa | 0 mm | - | - | - |
| 1777860017 | 18.89° C | 45% | 1012.5 hPa | 0 mm | - | - | - |
| 1777859998 | 19.44° C | 45% | 1012.5 hPa | 0 mm | - | - | - |
| 1777859713 | 19.44° C | 45% | 1012.5 hPa | 0 mm | - | - | - |
| 1777859121 | 20° C | 43% | 1012.7 hPa | 0 mm | - | - | - |
| 1777859015 | 20.56° C | 39% | 1012.7 hPa | 0 mm | - | - | - |
| 1777858822 | 20.56° C | 39% | 1012.7 hPa | 0 mm | - | - | - |
| 1777858701 | 20.56° C | 39% | 1012.8 hPa | 0 mm | - | - | - |
| 1777858519 | 20.56° C | 39% | 1012.8 hPa | 0 mm | - | - | - |
| 1777858213 | 21.11° C | 38% | 1012.8 hPa | 0 mm | - | - | - |
| 1777857920 | 21.11° C | 38% | 1012.9 hPa | 0 mm | - | - | - |
| 1777857613 | 21.67° C | 37% | 1012.8 hPa | 0 mm | - | - | - |
| 1777857474 | 21.67° C | 34% | 1012.7 hPa | 0 mm | - | - | - |
| 1777857313 | 21.67° C | 34% | 1012.7 hPa | 0 mm | - | - | - |
| 1777856887 | 21.67° C | 35% | 1012.7 hPa | 0 mm | - | - | - |
| 1777856713 | 21.67° C | 35% | 1012.7 hPa | 0 mm | - | - | - |
| 1777856650 | 21.67° C | 34% | 1012.7 hPa | 0 mm | - | - | - |
| 1777856421 | 21.67° C | 34% | 1012.7 hPa | 0 mm | - | - | - |
| 1777856113 | 21.67° C | 34% | 1012.8 hPa | 0 mm | - | - | - |
| 1777855976 | 21.67° C | 34% | 1012.8 hPa | 0 mm | - | - | - |
| 1777855813 | 21.67° C | 34% | 1012.8 hPa | 0 mm | - | - | - |
| 1777855520 | 21.67° C | 35% | 1012.7 hPa | 0 mm | - | - | - |
| 1777855215 | 21.67° C | 35% | 1012.8 hPa | 0 mm | - | - | - |
| 1777854915 | 21.67° C | 35% | 1013 hPa | 0 mm | - | - | - |
* Rain latest hour (hover to see other rain measurements)
** Current wind speed in m/s (hover to see current wind gust speed)